User: anonymous
Location: Muenchen
(48.1800°N, 11.5800°E)
Time: 13:12:32
(UTC+02:00)
Language:

Iridium 37 - Orbit

View from above orbital plane
View from above orbital plane
View from above satellite
View from above satellite

Ground track
Ground track

The orbit data is extracted from the following two-line orbital elements,

1 24968U 97056D   14243.46615668  .00000238  00000-0  77897-4 0  9357
2 24968 086.3980 025.5031 0002158 112.0973 248.0452 14.34218447886230
Epoch (UTC): 31 August 2014 11:11:15
Eccentricity: 0.0002158
inclination: 86.3980°
perigee height: 776 km
apogee height: 779 km
right ascension of ascending node: 25.5031°
argument of perigee: 112.0973°
revolutions per day: 14.34218447
mean anomaly at epoch: 248.0452°
orbit number at epoch: 88623

The dashed part of the orbit path shows where the satellite is in the earth's shadow,  

DLR